[[{"header":{"parameterUnit":"m.s-1","parameterCategory":1,"la1":30.2991,"la2":30.254,"lo1":-89.0895,"lo2":-89.0444,"dy":0.0017,"dx":0.0017,"nx":28,"ny":28,"refTime":"2024-04-09T03:00:00:Z","depth":0,"parameterNumber":2,"parameterNumberName":"U-component_of_WINDS"},"data":[0,0,0,0,0,0,0,0,0,0,0,0,0,0,0,0,0,0,0,0,0,0,0,0,0,0,0,0,0,0,0,0,0,0,0,0,0,0,0,0,0,0,0,0,0,0,0,0,0,0,0,0,0,0,0,0,0,0,-7.6086,-7.6087,0,-7.6184,-7.6185,-7.6186,-7.6137,-7.6135,-7.6132,-7.613,-7.6223,-7.6227,-7.6232,0,0,0,0,0,0,0,0,0,0,0,0,0,-7.5853,-7.5857,-7.6086,-7.6087,-7.6089,-7.6183,-7.6185,-7.6186,-7.6138,-7.6135,-7.6132,-7.6129,-7.6221,-7.6227,-7.6233,0,0,0,0,0,0,0,0,0,0,0,0,0,-7.5952,-7.5859,-7.6086,-7.6076,-7.6076,-7.6183,-7.6185,-7.6186,-7.6138,-7.6135,-7.6131,-7.6127,-7.6219,-7.6226,-7.6233,-7.6353,0,0,-7.6255,-7.6258,0,0,0,0,0,0,0,0,-7.5947,-7.5961,-7.6076,-7.6077,-7.6077,-7.6145,-7.6136,-7.6242,-7.6139,-7.6115,-7.613,-7.6125,-7.6199,-7.6208,-7.6234,-7.6358,-7.6362,-7.6256,-7.626,-7.6263,-7.6266,0,0,0,0,0,0,0,-7.594,-7.5956,-7.6124,-7.6078,-7.6079,-7.6065,-7.6075,-7.6156,-7.6177,-7.6116,-7.6113,-7.6126,-7.6199,-7.6227,-7.6236,-7.6363,-7.6256,-7.6262,-7.6267,-7.6269,-7.6589,-7.6593,0,0,0,0,0,0,-7.5934,-7.5951,-7.6121,-7.6127,-7.6002,-7.6072,-7.6083,-7.6127,-7.6176,-7.618,-7.6129,-7.6123,-7.6217,-7.6228,-7.6239,-7.6381,-7.6263,-7.627,-7.6274,-7.6584,-7.6589,-7.6594,0,0,0,0,0,0,-7.593,-7.595,-7.6117,-7.6039,-7.6059,-7.608,-7.6129,-7.6131,-7.6159,-7.6185,-7.6188,-7.6155,-7.6214,-7.6229,-7.6325,-7.6383,-7.6273,-7.628,-7.658,-7.6586,-7.6592,-7.6666,0,0,0,0,0,0,-7.5923,-7.5949,-7.5995,-7.604,-7.6063,-7.6204,-7.6133,-7.6135,-7.6172,-7.6166,-7.621,-7.6214,-7.6212,-7.6315,-7.6333,-7.6391,-7.6286,-7.6574,-7.6582,-7.659,-7.6659,-7.6674,-7.6688,0,0,0,0,0,-7.5915,-7.6011,-7.5998,-7.6019,-7.6123,-7.6207,-7.622,-7.6219,-7.6178,-7.6224,-7.6241,-7.6212,-7.6376,-7.6325,-7.6345,-7.6406,-7.6571,-7.658,-7.6589,-7.6652,-7.6671,-7.6687,0,0,0,0,0,0,-7.597,-7.6017,-7.6003,-7.6117,-7.6159,-7.6199,-7.6257,-7.624,-7.6292,-7.6283,-7.6278,-7.6288,-7.6388,-7.6408,-7.6351,-7.6525,-7.6466,-7.648,-7.6507,-7.6526,-7.654,-7.6531,-7.6292,0,0,0,0,0,-7.5996,-7.6063,-7.61,-7.6197,-7.6219,-7.6235,-7.6272,-7.6268,-7.631,-7.6326,-7.635,-7.6391,-7.6451,-7.649,-7.6547,-7.6663,-7.667,-7.6715,-7.673,-7.6742,-7.6752,-7.6812,-7.6832,-7.6625,-7.6624,-7.6624,0,0,-7.6049,-7.6083,-7.6125,-7.6209,-7.6241,-7.6308,-7.625,-7.6324,-7.6372,-7.6337,-7.6429,-7.6449,-7.6493,-7.66,-7.6648,-7.6619,-7.6812,-7.6754,-7.6763,-7.6766,-7.6824,-7.6844,-7.6861,-7.6631,-7.663,-7.6629,0,0,-7.6179,-7.6214,-7.6298,-7.6332,-7.6382,-7.6393,-7.6413,-7.6457,-7.6469,-7.6563,-7.6537,-7.6595,-7.6699,-7.6731,-7.6762,-7.6908,-7.6882,-7.6927,-7.7,-7.7059,-7.7076,-7.709,-7.7138,-7.7156,-7.6938,-7.6938,-7.6938,0,-7.6238,-7.634,-7.6342,-7.6418,-7.6455,-7.643,-7.6513,-7.6546,-7.6611,-7.6636,-7.6604,-7.6735,-7.6763,-7.6875,-7.6911,-7.6938,-7.6959,-7.6919,-7.7074,-7.7088,-7.7101,-7.7148,-7.7166,-7.6943,-7.6942,-7.6942,-7.6941,0,-7.6408,-7.648,-7.6541,-7.6608,-7.6652,-7.6731,-7.6743,-7.6788,-7.6781,-7.6794,-7.6889,-7.6923,-7.6986,-7.7013,-7.7006,-7.7125,-7.7105,-7.7075,-7.7014,-7.7126,-7.7169,-7.7187,-7.695,-7.6948,-7.6946,-7.6945,0,0,-7.6571,-7.664,-7.6662,-7.6692,-7.6747,-7.6801,-7.6879,-7.6943,-7.698,-7.7027,-7.709,-7.7181,-7.7153,-7.7187,-7.7184,-7.7237,-7.7347,-7.7199,-7.72,-7.7222,-7.7476,-7.7495,-7.7516,-7.7333,-7.7336,-7.7339,-7.7471,0,-7.6702,-7.684,-7.6846,-7.6971,-7.7035,-7.7014,-7.7082,-7.7122,-7.7138,-7.7193,-7.721,-7.7273,-7.7233,-7.7253,-7.7305,-7.7322,-7.7397,-7.7314,-7.7387,-7.739,-7.7372,-7.7539,-7.756,-7.7683,-7.7488,-7.7491,-7.7493,0,-7.6872,-7.6927,-7.7059,-7.7105,-7.7133,-7.7194,-7.7252,-7.7308,-7.7352,-7.736,-7.74,-7.739,-7.7468,-7.741,-7.7515,-7.7459,-7.749,-7.7504,-7.7508,-7.7511,-7.7445,-7.7542,-7.7722,-7.7739,-7.752,-7.7518,-7.7516,0,-7.6972,-7.708,-7.7172,-7.7199,-7.7256,-7.7299,-7.7325,-7.7367,-7.7405,-7.7456,-7.748,-7.754,-7.7571,-7.7617,-7.7622,-7.7581,-7.7728,-7.7671,-7.7733,-7.7732,-7.776,-7.7757,-7.7943,-7.7789,-7.7788,-7.7788,-7.7788,0,-7.7115,-7.7196,-7.7218,-7.7275,-7.7364,-7.737,-7.7458,-7.748,-7.7518,-7.7576,-7.7563,-7.7618,-7.7624,-7.7681,-7.7686,-7.7771,-7.7786,-7.7792,-7.7791,-7.779,-7.7789,-7.7807,-7.7796,-7.7793,-7.7792,-7.7791,-7.779,0,-7.724,-7.7259,-7.7358,-7.7406,-7.742,-7.7483,-7.7522,-7.7575,-7.7592,-7.7666,-7.7684,-7.7707,-7.7773,-7.7785,-7.7862,-7.7866,-7.7966,-7.7959,-7.7951,-7.7948,-7.8008,-7.8,-7.8207,-7.8233,-7.8067,-7.8068,-7.807,0,-7.7327,-7.7389,-7.7445,-7.7484,-7.7512,-7.7577,-7.7616,-7.7625,-7.7667,-7.7724,-7.7769,-7.7835,-7.7886,-7.7992,-7.8015,-7.8074,-7.8065,-7.8134,-7.8073,-7.807,-7.8061,-7.8055,-7.806,-7.8143,-7.8145,-7.8147,-7.8148,0,-7.7479,-7.7486,-7.7545,-7.7608,-7.7656,-7.7706,-7.7752,-7.7785,-7.78,-7.7847,-7.7916,-7.7956,-7.8037,-7.81,-7.8159,-7.8183,-7.8167,-7.8168,-7.8184,-7.8181,-7.8172,-7.8174,-7.7977,-7.8162,-7.816,-7.8159,-7.8158,-7.8158,-7.7585,-7.7638,-7.7686,-7.7752,-7.7789,-7.7833,-7.7885,-7.7909,-7.7967,-7.8034,-7.8037,-7.811,-7.8154,-7.8232,-7.826,-7.8317,-7.8294,-7.832,-7.8325,-7.833,-7.8334,-7.8168,-7.8328,-7.8328,-7.8328,-7.8327,-7.8327,0,-7.7732,-7.7763,-7.7824,-7.7891,-7.7943,-7.7928,-7.798,-7.8023,-7.8089,-7.8132,-7.8185,-7.8263,-7.8325,-7.8355,-7.8416,-7.8455,-7.8449,-7.847,-7.8465,-7.847,-7.8352,-7.833,-7.8474,-7.8474,-7.8474,-7.8474,-7.8474,-7.8474,-7.7814,-7.7904,-7.7917,-7.8024,-7.8053,-7.8128,-7.8158,-7.8198,-7.8233,-7.8321,-7.8374,-7.8394,-7.8431,-7.8495,-7.8551,-7.8558,-7.8579,-7.8603,-7.8606,-7.8494,-7.8479,-7.8464,-7.8443,-7.8609,-7.8609,-7.8718,-7.8719,-7.872]},{"header":{"parameterUnit":"m.s-1","parameterCategory":1,"la1":30.2991,"la2":30.254,"lo1":-89.0895,"lo2":-89.0444,"dy":0.0017,"dx":0.0017,"nx":28,"ny":28,"refTime":"2024-04-09T03:00:00:Z","depth":0,"parameterNumber":3,"parameterNumberName":"V-component_of_WINDS"},"data":[0,0,0,0,0,0,0,0,0,0,0,0,0,0,0,0,0,0,0,0,0,0,0,0,0,0,0,0,0,0,0,0,0,0,0,0,0,0,0,0,0,0,0,0,0,0,0,0,0,0,0,0,0,0,0,0,0,0,4.4657,4.4658,0,4.4758,4.4759,4.476,4.4769,4.4768,4.4767,4.4766,4.4865,4.4868,4.4872,0,0,0,0,0,0,0,0,0,0,0,0,0,4.447,4.4474,4.4657,4.4658,4.466,4.4757,4.4759,4.476,4.4769,4.4768,4.4767,4.4765,4.4864,4.4868,4.4872,0,0,0,0,0,0,0,0,0,0,0,0,0,4.4559,4.4475,4.4657,4.4676,4.4679,4.4757,4.4759,4.4761,4.4769,4.4768,4.4766,4.4765,4.4862,4.4867,4.4873,4.4938,0,0,4.4889,4.4892,0,0,0,0,0,0,0,0,4.4554,4.4566,4.4672,4.4675,4.4678,4.4749,4.4729,4.482,4.477,4.4735,4.4766,4.4764,4.4827,4.4835,4.4858,4.4942,4.4947,4.489,4.4893,4.4895,4.4897,0,0,0,0,0,0,0,4.4548,4.4562,4.4697,4.4673,4.4677,4.4679,4.469,4.4747,4.4789,4.4738,4.4739,4.4751,4.4829,4.4852,4.486,4.4948,4.489,4.4894,4.4898,4.49,4.5094,4.5095,0,0,0,0,0,0,4.4539,4.4557,4.4693,4.47,4.4611,4.4683,4.4696,4.4728,4.4788,4.4796,4.4752,4.4751,4.4844,4.4854,4.4864,4.4945,4.4895,4.49,4.4903,4.5092,4.5094,4.5096,0,0,0,0,0,0,4.4535,4.4551,4.4689,4.4629,4.4646,4.4688,4.4725,4.4731,4.4755,4.4799,4.4806,4.4769,4.4843,4.4856,4.492,4.4949,4.4903,4.4908,4.5089,4.5092,4.5095,4.5108,0,0,0,0,0,0,4.4529,4.4549,4.4575,4.4629,4.465,4.4745,4.4726,4.4734,4.4764,4.4764,4.4816,4.4824,4.4843,4.4912,4.4925,4.4955,4.4912,4.5087,4.5091,4.5094,4.5105,4.5111,4.5116,0,0,0,0,0,4.4523,4.4573,4.4576,4.4592,4.4683,4.4747,4.4758,4.4781,4.4767,4.4793,4.4821,4.4822,4.4944,4.4918,4.4934,4.4966,4.5085,4.509,4.5094,4.5103,4.511,4.5116,0,0,0,0,0,0,4.4519,4.458,4.4584,4.4654,4.4695,4.4748,4.4781,4.4787,4.4832,4.4829,4.4854,4.4865,4.4929,4.4954,4.4925,4.5033,4.5013,4.502,4.5015,4.5022,4.5027,4.5019,4.4916,0,0,0,0,0,4.4527,4.4575,4.4625,4.4682,4.4703,4.4739,4.4767,4.4781,4.4824,4.4841,4.4874,4.4915,4.4963,4.4994,4.504,4.5109,4.5121,4.5139,4.5144,4.5148,4.5154,4.5195,4.5203,4.511,4.511,4.511,0,0,4.4542,4.4582,4.461,4.4682,4.4716,4.4765,4.4753,4.4804,4.4841,4.4848,4.4912,4.4938,4.4985,4.5053,4.5084,4.5075,4.5183,4.5154,4.5157,4.5161,4.52,4.5209,4.5217,4.5113,4.5112,4.5112,0,0,4.4596,4.463,4.4682,4.4717,4.4769,4.4793,4.4805,4.4858,4.4876,4.4941,4.4949,4.4992,4.5073,4.5107,4.5134,4.5204,4.5207,4.5218,4.5246,4.5285,4.5292,4.5299,4.5325,4.5334,4.5224,4.5224,4.5224,0,4.4608,4.4683,4.4708,4.476,4.4792,4.4804,4.4857,4.4889,4.4952,4.4974,4.4963,4.5067,4.51,4.5176,4.5194,4.5215,4.5231,4.5212,4.5289,4.5296,4.5303,4.5328,4.5337,4.5225,4.5225,4.5225,4.5225,0,4.4696,4.4748,4.4784,4.4848,4.4884,4.4936,4.4968,4.5002,4.5013,4.5038,4.5104,4.5144,4.5199,4.5219,4.5229,4.5297,4.5291,4.5285,4.5265,4.5313,4.5337,4.5346,4.5227,4.5227,4.5226,4.5226,0,0,4.4749,4.4828,4.4841,4.4871,4.493,4.497,4.5023,4.5079,4.5108,4.5152,4.5197,4.5267,4.5263,4.5294,4.5309,4.5343,4.5398,4.5333,4.5335,4.5345,4.5477,4.5481,4.5492,4.54,4.5402,4.5403,4.5473,0,4.481,4.4907,4.4932,4.5014,4.5063,4.5076,4.5122,4.5163,4.5188,4.5233,4.526,4.531,4.53,4.5319,4.5354,4.5384,4.5424,4.5379,4.5442,4.5444,4.543,4.5504,4.5509,4.5573,4.5482,4.5484,4.5485,0,4.4894,4.4942,4.503,4.5085,4.5106,4.5148,4.5202,4.5245,4.5292,4.5308,4.5345,4.5357,4.5413,4.5391,4.5469,4.5437,4.5465,4.5483,4.5486,4.5493,4.5468,4.5514,4.5593,4.5603,4.55,4.5499,4.5498,0,4.4925,4.5012,4.5076,4.5101,4.5167,4.5196,4.5224,4.527,4.5303,4.535,4.5372,4.5424,4.5453,4.5493,4.5519,4.5501,4.5595,4.5575,4.561,4.561,4.5629,4.5628,4.5715,4.5646,4.5646,4.5646,4.5645,0,4.4991,4.5044,4.5091,4.5131,4.5191,4.5219,4.5278,4.5307,4.5348,4.5393,4.5406,4.5448,4.548,4.5526,4.5546,4.5608,4.5621,4.5635,4.564,4.5635,4.5633,4.5653,4.5649,4.5648,4.5648,4.5647,4.5647,0,4.5036,4.507,4.5141,4.5198,4.5214,4.5256,4.5304,4.5343,4.537,4.5427,4.5441,4.5483,4.5538,4.5568,4.5636,4.565,4.572,4.5722,4.5705,4.5707,4.5741,4.5738,4.5845,4.5861,4.578,4.5781,4.5781,0,4.5076,4.5118,4.5181,4.5213,4.5242,4.5293,4.5328,4.5357,4.5393,4.5451,4.5483,4.5539,4.5586,4.5674,4.5709,4.5762,4.5766,4.58,4.5774,4.5768,4.5768,4.5765,4.577,4.5804,4.5805,4.5806,4.5806,0,4.5144,4.516,4.5209,4.5266,4.5307,4.5352,4.5397,4.5422,4.5459,4.5498,4.5556,4.5592,4.5664,4.572,4.5776,4.5805,4.5812,4.5814,4.5826,4.582,4.5809,4.5817,4.5718,4.5812,4.5811,4.5811,4.581,4.581,4.5189,4.5228,4.5278,4.5334,4.5371,4.5413,4.5453,4.5486,4.5535,4.5597,4.5611,4.5672,4.572,4.5797,4.5827,4.5875,4.5868,4.5884,4.5888,4.5892,4.5894,4.5801,4.5885,4.5885,4.5885,4.5885,4.5885,0,4.5259,4.5293,4.5344,4.5407,4.5451,4.5456,4.5506,4.5543,4.5597,4.5641,4.5688,4.5755,4.581,4.5851,4.5907,4.5938,4.5943,4.5952,4.595,4.5957,4.5896,4.5881,4.5947,4.5947,4.5947,4.5947,4.5947,4.5947,4.5301,4.5367,4.5388,4.5473,4.5506,4.5568,4.5596,4.5636,4.5672,4.5747,4.5793,4.582,4.5863,4.5923,4.5974,4.5984,4.6005,4.6014,4.6025,4.5967,4.596,4.5954,4.5941,4.6018,4.6018,4.6081,4.6082,4.6082]}]]